{"data":{"norad_id":68444,"intl_designator":"2026-067AE","name":"SHARJAH-SAT-2","alt_names":[],"object_type":"PAYLOAD","status":"ACTIVE","operator":null,"country":"UAE","launch_date":"2026-03-30","launch_site_code":"AFWTR","launch_vehicle":null,"mission":null,"orbit_class":"UNKNOWN","rcs_meters":null,"size_class":null,"mass_kg":null,"dimensions":null,"purposes":[],"wikipedia_slug":null,"has_3d_model":false,"image_url":null,"decayed_at":null,"tle_current":{"epoch":"2026-09-20T03:37:04.331712Z","epoch_age_seconds":99158,"freshness":"FRESH","line1":"1 68444U 26067AE  26263.15074458  .00004597  00000+0  21717-3 0  9995","line2":"2 68444  97.4677 220.5783 0002731  57.4797 302.6701 15.19908452 26367","mean_motion":15.19908452,"eccentricity":0.0002731,"inclination_deg":97.4677,"raan_deg":220.5783,"arg_perigee_deg":57.4797,"mean_anomaly_deg":302.6701,"bstar":0.00021717,"rev_number":2636,"period_min":94.742548349221,"perigee_km":504.23694765528,"apogee_km":507.99712721052,"semimajor_km":6884.2540374329,"source":"CELESTRAK","updated_at":"2026-09-20T09:00:24.206401Z"}}}